Location: ?ern� Novina
(50.6762°N, 14.8696°E)
Time: 11:46:51
(UTC+00:00)

USA 186 - Pass Details

Date: 03 March 2021
Orbit: 261 x 429 km, 96.9° (Epoch: 15 April)

Event Time Altitude Azimuth Distance (km) Brightness Sun altitude
Exits shadow 18:28:20 58° 2° (N) 348 1.3 -17.0°
Drops below altitude 10° 18:30:27 10° 349° (N) 1,186 4.3 -17.4°
Sets 18:32:24 0° 349° (NNW) 2,051 5.6 -17.7°
